Location: Cheching
(60.0667°N, 164.2167°W)
Time: 20:01:20
(UTC+00:00)

DX 1 - Pass Details

Date: 29 January 2021
Orbit: 618 x 631 km, 98.5° (Epoch: 26 February)

Event Time Altitude Azimuth Distance (km) Brightness Sun altitude
Rises 14:18:43 0° 102° (ESE) 2,912 ? -36.0°
Reaches altitude 10° 14:21:38 10° 81° (E) 2,006 ? -35.7°
Maximum altitude 14:24:15 16° 44° (NE) 1,654 ? -35.4°
Enters shadow 14:25:56 13° 18° (NNE) 1,811 ? -35.2°
